Year,Month,Day,Hour,Minute,Value (Times are PST for temperature in C)
2017,02,14,00,00,3.20
2017,02,14,00,01,3.20
2017,02,14,00,02,3.20
2017,02,14,00,03,3.30
2017,02,14,00,04,3.30
2017,02,14,00,05,3.30
2017,02,14,00,06,3.30
2017,02,14,00,07,3.30
2017,02,14,00,08,3.30
2017,02,14,00,09,3.30
2017,02,14,00,10,3.20
2017,02,14,00,11,3.20
2017,02,14,00,12,3.20
2017,02,14,00,13,3.20
2017,02,14,00,14,3.10
2017,02,14,00,15,3.10
2017,02,14,00,16,3.10
2017,02,14,00,17,3.10
2017,02,14,00,18,3.10
2017,02,14,00,19,3.10
2017,02,14,00,20,3.10
2017,02,14,00,21,3.20
2017,02,14,00,22,3.20
2017,02,14,00,23,3.20
2017,02,14,00,24,3.20
2017,02,14,00,25,3.20
2017,02,14,00,26,3.20
2017,02,14,00,27,3.20
2017,02,14,00,28,3.20
2017,02,14,00,29,3.20
2017,02,14,00,30,3.30
2017,02,14,00,31,3.30
2017,02,14,00,32,3.30
2017,02,14,00,33,3.40
2017,02,14,00,34,3.40
2017,02,14,00,35,3.40
2017,02,14,00,36,3.50
2017,02,14,00,37,3.50
2017,02,14,00,38,3.50
2017,02,14,00,39,3.60
2017,02,14,00,40,3.60
2017,02,14,00,41,3.60
2017,02,14,00,42,3.70
2017,02,14,00,43,3.70
2017,02,14,00,44,3.70
2017,02,14,00,45,3.70
2017,02,14,00,46,3.60
2017,02,14,00,47,3.50
2017,02,14,00,48,3.40
2017,02,14,00,49,3.30
2017,02,14,00,50,3.20
2017,02,14,00,51,3.10
2017,02,14,00,52,3.00
2017,02,14,00,53,2.90
2017,02,14,00,54,2.80
2017,02,14,00,55,2.70
2017,02,14,00,56,2.60
2017,02,14,00,57,2.60
2017,02,14,00,58,2.50
2017,02,14,00,59,2.40
2017,02,14,01,00,2.40
2017,02,14,01,01,2.30
2017,02,14,01,02,2.30
2017,02,14,01,03,2.30
2017,02,14,01,04,2.30
2017,02,14,01,05,2.30
2017,02,14,01,06,2.30
2017,02,14,01,07,2.30
2017,02,14,01,08,2.30
2017,02,14,01,09,2.30
2017,02,14,01,10,2.30
2017,02,14,01,11,2.30
2017,02,14,01,12,2.30
2017,02,14,01,13,2.40
2017,02,14,01,14,2.40
2017,02,14,01,15,2.40
2017,02,14,01,16,2.50
2017,02,14,01,17,2.50
2017,02,14,01,18,2.60
2017,02,14,01,19,2.60
2017,02,14,01,20,2.60
2017,02,14,01,21,2.60
2017,02,14,01,22,2.60
2017,02,14,01,23,2.50
2017,02,14,01,24,2.50
2017,02,14,01,25,2.50
2017,02,14,01,26,2.50
2017,02,14,01,27,2.40
2017,02,14,01,28,2.40
2017,02,14,01,29,2.40
2017,02,14,01,30,2.40
2017,02,14,01,31,2.40
2017,02,14,01,32,2.40
2017,02,14,01,33,2.50
2017,02,14,01,34,2.50
2017,02,14,01,35,2.60
2017,02,14,01,36,2.60
2017,02,14,01,37,2.70
2017,02,14,01,38,2.70
2017,02,14,01,39,2.80
2017,02,14,01,40,2.80
2017,02,14,01,41,2.90
2017,02,14,01,42,2.90
2017,02,14,01,43,3.00
2017,02,14,01,44,3.00
2017,02,14,01,45,3.00
2017,02,14,01,46,3.00
2017,02,14,01,47,3.00
2017,02,14,01,48,3.00
2017,02,14,01,49,3.00
2017,02,14,01,50,3.00
2017,02,14,01,51,3.00
2017,02,14,01,52,3.00
2017,02,14,01,53,3.00
2017,02,14,01,54,3.00
2017,02,14,01,55,3.10
2017,02,14,01,56,3.10
2017,02,14,01,57,3.20
2017,02,14,01,58,3.20
2017,02,14,01,59,3.30
2017,02,14,02,00,3.40
2017,02,14,02,01,3.50
2017,02,14,02,02,3.50
2017,02,14,02,03,3.60
2017,02,14,02,04,3.70
2017,02,14,02,05,3.80
2017,02,14,02,06,3.80
2017,02,14,02,07,3.90
2017,02,14,02,08,4.10
2017,02,14,02,09,4.20
2017,02,14,02,10,4.30
2017,02,14,02,11,4.40
2017,02,14,02,12,4.50
2017,02,14,02,13,4.60
2017,02,14,02,14,4.70
2017,02,14,02,15,4.70
2017,02,14,02,16,4.80
2017,02,14,02,17,4.80
2017,02,14,02,18,4.80
2017,02,14,02,19,4.90
2017,02,14,02,20,4.90
2017,02,14,02,21,5.00
2017,02,14,02,22,5.10
2017,02,14,02,23,5.10
2017,02,14,02,24,5.10
2017,02,14,02,25,5.20
2017,02,14,02,26,5.30
2017,02,14,02,27,5.30
2017,02,14,02,28,5.30
2017,02,14,02,29,5.40
2017,02,14,02,30,5.40
2017,02,14,02,31,5.50
2017,02,14,02,32,5.50
2017,02,14,02,33,5.50
2017,02,14,02,34,5.50
2017,02,14,02,35,5.60
2017,02,14,02,36,5.60
2017,02,14,02,37,5.60
2017,02,14,02,38,5.60
2017,02,14,02,39,5.70
2017,02,14,02,40,5.70
2017,02,14,02,41,5.70
2017,02,14,02,42,5.70
2017,02,14,02,43,5.80
2017,02,14,02,44,5.80
2017,02,14,02,45,5.80
2017,02,14,02,46,5.80
2017,02,14,02,47,5.80
2017,02,14,02,48,5.80
2017,02,14,02,49,5.80
2017,02,14,02,50,5.90
2017,02,14,02,51,5.90
2017,02,14,02,52,5.90
2017,02,14,02,53,5.90
2017,02,14,02,54,5.90
2017,02,14,02,55,5.90
2017,02,14,02,56,5.90
2017,02,14,02,57,5.90
2017,02,14,02,58,5.90
2017,02,14,02,59,5.90
2017,02,14,03,00,5.90
2017,02,14,03,01,5.90
2017,02,14,03,02,5.90
2017,02,14,03,03,5.80
2017,02,14,03,04,5.80
2017,02,14,03,05,5.80
2017,02,14,03,06,5.80
2017,02,14,03,07,5.80
2017,02,14,03,08,5.80
2017,02,14,03,09,5.80
2017,02,14,03,10,5.80
2017,02,14,03,11,5.80
2017,02,14,03,12,5.80
2017,02,14,03,13,5.80
2017,02,14,03,14,5.80
2017,02,14,03,15,5.80
2017,02,14,03,16,5.70
2017,02,14,03,17,5.70
2017,02,14,03,18,5.70
2017,02,14,03,19,5.70
2017,02,14,03,20,5.70
2017,02,14,03,21,5.70
2017,02,14,03,22,5.60
2017,02,14,03,23,5.60
2017,02,14,03,24,5.60
2017,02,14,03,25,5.50
2017,02,14,03,26,5.40
2017,02,14,03,27,5.40
2017,02,14,03,28,5.40
2017,02,14,03,29,5.40
2017,02,14,03,30,5.40
2017,02,14,03,31,5.40
2017,02,14,03,32,5.40
2017,02,14,03,33,5.40
2017,02,14,03,34,5.40
2017,02,14,03,35,5.40
2017,02,14,03,36,5.40
2017,02,14,03,37,5.40
2017,02,14,03,38,5.40
2017,02,14,03,39,5.40
2017,02,14,03,40,5.30
2017,02,14,03,41,5.30
2017,02,14,03,42,5.20
2017,02,14,03,43,5.20
2017,02,14,03,44,5.10
2017,02,14,03,45,5.10
2017,02,14,03,46,5.00
2017,02,14,03,47,4.90
2017,02,14,03,48,4.90
2017,02,14,03,49,4.90
2017,02,14,03,50,4.90
2017,02,14,03,51,4.90
2017,02,14,03,52,4.90
2017,02,14,03,53,4.90
2017,02,14,03,54,5.00
2017,02,14,03,55,5.00
2017,02,14,03,56,5.10
2017,02,14,03,57,5.10
2017,02,14,03,58,5.10
2017,02,14,03,59,5.10
2017,02,14,04,00,5.10
2017,02,14,04,01,5.10
2017,02,14,04,02,5.10
2017,02,14,04,03,5.10
2017,02,14,04,04,5.10
2017,02,14,04,05,5.10
2017,02,14,04,06,5.10
2017,02,14,04,07,5.10
2017,02,14,04,08,5.10
2017,02,14,04,09,5.10
2017,02,14,04,10,5.10
2017,02,14,04,11,5.00
2017,02,14,04,12,5.00
2017,02,14,04,13,5.00
2017,02,14,04,14,5.00
2017,02,14,04,15,5.00
2017,02,14,04,16,5.00
2017,02,14,04,17,5.00
2017,02,14,04,18,5.00
2017,02,14,04,19,5.00
2017,02,14,04,20,5.00
2017,02,14,04,21,4.90
2017,02,14,04,22,4.90
2017,02,14,04,23,4.90
2017,02,14,04,24,4.90
2017,02,14,04,25,4.90
2017,02,14,04,26,4.80
2017,02,14,04,27,4.80
2017,02,14,04,28,4.80
2017,02,14,04,29,4.80
2017,02,14,04,30,4.70
2017,02,14,04,31,4.70
2017,02,14,04,32,4.70
2017,02,14,04,33,4.60
2017,02,14,04,34,4.60
2017,02,14,04,35,4.60
2017,02,14,04,36,4.60
2017,02,14,04,37,4.60
2017,02,14,04,38,4.60
2017,02,14,04,39,4.60
2017,02,14,04,40,4.70
2017,02,14,04,41,4.70
2017,02,14,04,42,4.70
2017,02,14,04,43,4.70
2017,02,14,04,44,4.70
2017,02,14,04,45,4.70
2017,02,14,04,46,4.70
2017,02,14,04,47,4.80
2017,02,14,04,48,4.80
2017,02,14,04,49,4.80
2017,02,14,04,50,4.80
2017,02,14,04,51,4.80
2017,02,14,04,52,4.70
2017,02,14,04,53,4.70
2017,02,14,04,54,4.70
2017,02,14,04,55,4.70
2017,02,14,04,56,4.70
2017,02,14,04,57,4.60
2017,02,14,04,58,4.60
2017,02,14,04,59,4.60
2017,02,14,05,00,4.60
2017,02,14,05,01,4.60
2017,02,14,05,02,4.60
2017,02,14,05,03,4.60
2017,02,14,05,04,4.60
2017,02,14,05,05,4.70
2017,02,14,05,06,4.70
2017,02,14,05,07,4.70
2017,02,14,05,08,4.70
2017,02,14,05,09,4.70
2017,02,14,05,10,4.80
2017,02,14,05,11,4.80
2017,02,14,05,12,4.80
2017,02,14,05,13,4.80
2017,02,14,05,14,4.90
2017,02,14,05,15,4.90
2017,02,14,05,16,4.90
2017,02,14,05,17,4.90
2017,02,14,05,18,5.00
2017,02,14,05,19,5.00
2017,02,14,05,20,5.10
2017,02,14,05,21,5.10
2017,02,14,05,22,5.20
2017,02,14,05,23,5.30
2017,02,14,05,24,5.30
2017,02,14,05,25,5.40
2017,02,14,05,26,5.40
2017,02,14,05,27,5.50
2017,02,14,05,28,5.60
2017,02,14,05,29,5.60
2017,02,14,05,30,5.60
2017,02,14,05,31,5.70
2017,02,14,05,32,5.70
2017,02,14,05,33,5.80
2017,02,14,05,34,5.80
2017,02,14,05,35,5.90
2017,02,14,05,36,5.90
2017,02,14,05,37,5.90
2017,02,14,05,38,6.00
2017,02,14,05,39,6.00
2017,02,14,05,40,6.10
2017,02,14,05,41,6.10
2017,02,14,05,42,6.10
2017,02,14,05,43,6.10
2017,02,14,05,44,6.10
2017,02,14,05,45,6.10
2017,02,14,05,46,6.10
2017,02,14,05,47,6.10
2017,02,14,05,48,6.10
2017,02,14,05,49,6.10
2017,02,14,05,50,6.10
2017,02,14,05,51,6.10
2017,02,14,05,52,6.10
2017,02,14,05,53,6.10
2017,02,14,05,54,6.10
2017,02,14,05,55,6.10
2017,02,14,05,56,6.10
2017,02,14,05,57,6.10
2017,02,14,05,58,6.10
2017,02,14,05,59,6.10
2017,02,14,06,00,6.10
2017,02,14,06,01,6.00
2017,02,14,06,02,6.00
2017,02,14,06,03,6.00
2017,02,14,06,04,6.00
2017,02,14,06,05,6.00
2017,02,14,06,06,6.00
2017,02,14,06,07,5.90
2017,02,14,06,08,5.90
2017,02,14,06,09,5.90
2017,02,14,06,10,5.90
2017,02,14,06,11,5.90
2017,02,14,06,12,5.90
2017,02,14,06,13,5.80
2017,02,14,06,14,5.80
2017,02,14,06,15,5.80
2017,02,14,06,16,5.80
2017,02,14,06,17,5.80
2017,02,14,06,18,5.80
2017,02,14,06,19,5.80
2017,02,14,06,20,5.80
2017,02,14,06,21,5.90
2017,02,14,06,22,5.90
2017,02,14,06,23,5.90
2017,02,14,06,24,6.00
2017,02,14,06,25,6.00
2017,02,14,06,26,6.00
2017,02,14,06,27,6.10
2017,02,14,06,28,6.10
2017,02,14,06,29,6.10
2017,02,14,06,30,6.00
2017,02,14,06,31,6.00
2017,02,14,06,32,6.00
2017,02,14,06,33,6.00
2017,02,14,06,34,6.00
2017,02,14,06,35,6.00
2017,02,14,06,36,6.00
2017,02,14,06,37,6.00
2017,02,14,06,38,6.00
2017,02,14,06,39,6.00
2017,02,14,06,40,6.00
2017,02,14,06,41,6.00
2017,02,14,06,42,6.10
2017,02,14,06,43,6.10
2017,02,14,06,44,6.10
2017,02,14,06,45,6.10
2017,02,14,06,46,6.10
2017,02,14,06,47,6.10
2017,02,14,06,48,6.10
2017,02,14,06,49,6.10
2017,02,14,06,50,6.10
2017,02,14,06,51,6.10
2017,02,14,06,52,6.10
2017,02,14,06,53,6.10
2017,02,14,06,54,6.10
2017,02,14,06,55,6.10
2017,02,14,06,56,6.10
2017,02,14,06,57,6.10
2017,02,14,06,58,6.10
2017,02,14,06,59,6.10
2017,02,14,07,00,6.10
2017,02,14,07,01,6.10
2017,02,14,07,02,6.10
2017,02,14,07,03,6.10
2017,02,14,07,04,6.10
2017,02,14,07,05,6.10
2017,02,14,07,06,6.10
2017,02,14,07,07,6.10
2017,02,14,07,08,6.10
2017,02,14,07,09,6.10
2017,02,14,07,10,6.20
2017,02,14,07,11,6.20
2017,02,14,07,12,6.20
2017,02,14,07,13,6.30
2017,02,14,07,14,6.30
2017,02,14,07,15,6.30
2017,02,14,07,16,6.30
2017,02,14,07,17,6.30
2017,02,14,07,18,6.30
2017,02,14,07,19,6.30
2017,02,14,07,20,6.30
2017,02,14,07,21,6.40
2017,02,14,07,22,6.40
2017,02,14,07,23,6.40
2017,02,14,07,24,6.40
2017,02,14,07,25,6.40
2017,02,14,07,26,6.40
2017,02,14,07,27,6.40
2017,02,14,07,28,6.40
2017,02,14,07,29,6.40
2017,02,14,07,30,6.40
2017,02,14,07,31,6.30
2017,02,14,07,32,6.30
2017,02,14,07,33,6.30
2017,02,14,07,34,6.40
2017,02,14,07,35,6.40
2017,02,14,07,36,6.40
2017,02,14,07,37,6.40
2017,02,14,07,38,6.40
2017,02,14,07,39,6.40
2017,02,14,07,40,6.40
2017,02,14,07,41,6.40
2017,02,14,07,42,6.40
2017,02,14,07,43,6.40
2017,02,14,07,44,6.40
2017,02,14,07,45,6.40
2017,02,14,07,46,6.40
2017,02,14,07,47,6.50
2017,02,14,07,48,6.50
2017,02,14,07,49,6.50
2017,02,14,07,50,6.50
2017,02,14,07,51,6.60
2017,02,14,07,52,6.60
2017,02,14,07,53,6.60
2017,02,14,07,54,6.60
2017,02,14,07,55,6.60
2017,02,14,07,56,6.60
2017,02,14,07,57,6.70
2017,02,14,07,58,6.70
2017,02,14,07,59,6.70
2017,02,14,08,00,6.70
2017,02,14,08,01,6.70
2017,02,14,08,02,6.70
2017,02,14,08,03,6.70
2017,02,14,08,04,6.70
2017,02,14,08,05,6.70
2017,02,14,08,06,6.80
2017,02,14,08,07,6.80
2017,02,14,08,08,6.80
2017,02,14,08,09,6.80
2017,02,14,08,10,6.80
2017,02,14,08,11,6.80
2017,02,14,08,12,6.70
2017,02,14,08,13,6.70
2017,02,14,08,14,6.70
2017,02,14,08,15,6.70
2017,02,14,08,16,6.60
2017,02,14,08,17,6.60
2017,02,14,08,18,6.60
2017,02,14,08,19,6.60
2017,02,14,08,20,6.60
2017,02,14,08,21,6.60
2017,02,14,08,22,6.60
2017,02,14,08,23,6.60
2017,02,14,08,24,6.60
2017,02,14,08,25,6.70
2017,02,14,08,26,6.70
2017,02,14,08,27,6.80
2017,02,14,08,28,6.80
2017,02,14,08,29,6.80
2017,02,14,08,30,6.90
2017,02,14,08,31,6.90
2017,02,14,08,32,6.90
2017,02,14,08,33,7.00
2017,02,14,08,34,7.00
2017,02,14,08,35,7.00
2017,02,14,08,36,7.00
2017,02,14,08,37,7.10
2017,02,14,08,38,7.10
2017,02,14,08,39,7.10
2017,02,14,08,40,7.10
2017,02,14,08,41,7.10
2017,02,14,08,42,7.10
2017,02,14,08,43,7.10
2017,02,14,08,44,7.10
2017,02,14,08,45,7.10
2017,02,14,08,46,7.10
2017,02,14,08,47,7.10
2017,02,14,08,48,7.10
2017,02,14,08,49,7.10
2017,02,14,08,50,7.10
2017,02,14,08,51,7.20
2017,02,14,08,52,7.20
2017,02,14,08,53,7.20
2017,02,14,08,54,7.20
2017,02,14,08,55,7.20
2017,02,14,08,56,7.20
2017,02,14,08,57,7.20
2017,02,14,08,58,7.20
2017,02,14,08,59,7.20
2017,02,14,09,00,7.20
2017,02,14,09,01,7.20
2017,02,14,09,02,7.20
2017,02,14,09,03,7.20
2017,02,14,09,04,7.20
2017,02,14,09,05,7.20
2017,02,14,09,06,7.20
2017,02,14,09,07,7.20
2017,02,14,09,08,7.20
2017,02,14,09,09,7.20
2017,02,14,09,10,7.20
2017,02,14,09,11,7.20
2017,02,14,09,12,7.20
2017,02,14,09,13,7.20
2017,02,14,09,14,7.20
2017,02,14,09,15,7.20
2017,02,14,09,16,7.20
2017,02,14,09,17,7.30
2017,02,14,09,18,7.30
2017,02,14,09,19,7.30
2017,02,14,09,20,7.30
2017,02,14,09,21,7.30
2017,02,14,09,22,7.40
2017,02,14,09,23,7.40
2017,02,14,09,24,7.40
2017,02,14,09,25,7.40
2017,02,14,09,26,7.40
2017,02,14,09,27,7.40
2017,02,14,09,28,7.40
2017,02,14,09,29,7.40
2017,02,14,09,30,7.40
2017,02,14,09,31,7.50
2017,02,14,09,32,7.50
2017,02,14,09,33,7.50
2017,02,14,09,34,7.50
2017,02,14,09,35,7.60
2017,02,14,09,36,7.60
2017,02,14,09,37,7.60
2017,02,14,09,38,7.60
2017,02,14,09,39,7.70
2017,02,14,09,40,7.70
2017,02,14,09,41,7.70
2017,02,14,09,42,7.70
2017,02,14,09,43,7.80
2017,02,14,09,44,7.80
2017,02,14,09,45,7.80
2017,02,14,09,46,7.80
2017,02,14,09,47,7.90
2017,02,14,09,48,7.90
2017,02,14,09,49,7.90
2017,02,14,09,50,7.90
2017,02,14,09,51,8.00
2017,02,14,09,52,8.00
2017,02,14,09,53,8.00
2017,02,14,09,54,8.00
2017,02,14,09,55,8.10
2017,02,14,09,56,8.10
2017,02,14,09,57,8.10
2017,02,14,09,58,8.10
2017,02,14,09,59,8.20
2017,02,14,10,00,8.20
2017,02,14,10,01,8.20
2017,02,14,10,02,8.20
2017,02,14,10,03,8.20
2017,02,14,10,04,8.20
2017,02,14,10,05,8.30
2017,02,14,10,06,8.30
2017,02,14,10,07,8.30
2017,02,14,10,08,8.30
2017,02,14,10,09,8.30
2017,02,14,10,10,8.30
2017,02,14,10,11,8.30
2017,02,14,10,12,8.30
2017,02,14,10,13,8.30
2017,02,14,10,14,8.30
2017,02,14,10,15,8.30
2017,02,14,10,16,8.40
2017,02,14,10,17,8.40
2017,02,14,10,18,8.40
2017,02,14,10,19,8.40
2017,02,14,10,20,8.50
2017,02,14,10,21,8.50
2017,02,14,10,22,8.60
2017,02,14,10,23,8.60
2017,02,14,10,24,8.60
2017,02,14,10,25,8.60
2017,02,14,10,26,8.60
2017,02,14,10,27,8.60
2017,02,14,10,28,8.70
2017,02,14,10,29,8.70
2017,02,14,10,30,8.70
2017,02,14,10,31,8.70
2017,02,14,10,32,8.70
2017,02,14,10,33,8.60
2017,02,14,10,34,8.60
2017,02,14,10,35,8.60
2017,02,14,10,36,8.60
2017,02,14,10,37,8.60
2017,02,14,10,38,8.60
2017,02,14,10,39,8.60
2017,02,14,10,40,8.60
2017,02,14,10,41,8.60
2017,02,14,10,42,8.60
2017,02,14,10,43,8.60
2017,02,14,10,44,8.60
2017,02,14,10,45,8.60
2017,02,14,10,46,8.60
2017,02,14,10,47,8.60
2017,02,14,10,48,8.60
2017,02,14,10,49,8.60
2017,02,14,10,50,8.70
2017,02,14,10,51,8.70
2017,02,14,10,52,8.70
2017,02,14,10,53,8.70
2017,02,14,10,54,8.70
2017,02,14,10,55,8.70
2017,02,14,10,56,8.70
2017,02,14,10,57,8.70
2017,02,14,10,58,8.70
2017,02,14,10,59,8.70
2017,02,14,11,00,8.70
2017,02,14,11,01,8.80
2017,02,14,11,02,8.80
2017,02,14,11,03,8.80
2017,02,14,11,04,8.80
2017,02,14,11,05,8.80
2017,02,14,11,06,8.80
2017,02,14,11,07,8.80
2017,02,14,11,08,8.90
2017,02,14,11,09,8.90
2017,02,14,11,10,8.90
2017,02,14,11,11,8.90
2017,02,14,11,12,9.00
2017,02,14,11,13,9.00
2017,02,14,11,14,9.00
2017,02,14,11,15,9.00
2017,02,14,11,16,9.00
2017,02,14,11,17,9.00
2017,02,14,11,18,9.00
2017,02,14,11,19,9.00
2017,02,14,11,20,9.00
2017,02,14,11,21,9.10
2017,02,14,11,22,9.00
2017,02,14,11,23,9.00
2017,02,14,11,24,9.00
2017,02,14,11,25,8.90
2017,02,14,11,26,9.00
2017,02,14,11,27,9.00
2017,02,14,11,28,9.00
2017,02,14,11,29,9.00
2017,02,14,11,30,9.00
2017,02,14,11,31,9.00
2017,02,14,11,32,9.00
2017,02,14,11,33,9.00
2017,02,14,11,34,9.00
2017,02,14,11,35,9.00
2017,02,14,11,36,9.00
2017,02,14,11,37,9.00
2017,02,14,11,38,9.00
2017,02,14,11,39,9.00
2017,02,14,11,40,9.00
2017,02,14,11,41,9.00
2017,02,14,11,42,9.00
2017,02,14,11,43,9.10
2017,02,14,11,44,9.10
2017,02,14,11,45,9.10
2017,02,14,11,46,9.10
2017,02,14,11,47,9.10
2017,02,14,11,48,9.10
2017,02,14,11,49,9.10
2017,02,14,11,50,9.10
2017,02,14,11,51,9.10
2017,02,14,11,52,9.10
2017,02,14,11,53,9.10
2017,02,14,11,54,9.10
2017,02,14,11,55,9.10
2017,02,14,11,56,9.10
2017,02,14,11,57,9.10
2017,02,14,11,58,9.20
2017,02,14,11,59,9.20
2017,02,14,12,00,9.20
2017,02,14,12,01,9.30
2017,02,14,12,02,9.30
2017,02,14,12,03,9.30
2017,02,14,12,04,9.30
2017,02,14,12,05,9.30
2017,02,14,12,06,9.30
2017,02,14,12,07,9.30
2017,02,14,12,08,9.30
2017,02,14,12,09,9.40
2017,02,14,12,10,9.40
2017,02,14,12,11,9.40
2017,02,14,12,12,9.40
2017,02,14,12,13,9.40
2017,02,14,12,14,9.40
2017,02,14,12,15,9.40
2017,02,14,12,16,9.40
2017,02,14,12,17,9.40
2017,02,14,12,18,9.40
2017,02,14,12,19,9.40
2017,02,14,12,20,9.40
2017,02,14,12,21,9.40
2017,02,14,12,22,9.40
2017,02,14,12,23,9.30
2017,02,14,12,24,9.30
2017,02,14,12,25,9.30
2017,02,14,12,26,9.30
2017,02,14,12,27,9.30
2017,02,14,12,28,9.30
2017,02,14,12,29,9.30
2017,02,14,12,30,9.30
2017,02,14,12,31,9.30
2017,02,14,12,32,9.30
2017,02,14,12,33,9.30
2017,02,14,12,34,9.30
2017,02,14,12,35,9.30
2017,02,14,12,36,9.30
2017,02,14,12,37,9.30
2017,02,14,12,38,9.20
2017,02,14,12,39,9.20
2017,02,14,12,40,9.20
2017,02,14,12,41,9.20
2017,02,14,12,42,9.20
2017,02,14,12,43,9.20
2017,02,14,12,44,9.20
2017,02,14,12,45,9.20
2017,02,14,12,46,9.20
2017,02,14,12,47,9.20
2017,02,14,12,48,9.20
2017,02,14,12,49,9.20
2017,02,14,12,50,9.20
2017,02,14,12,51,9.20
2017,02,14,12,52,9.20
2017,02,14,12,53,9.20
2017,02,14,12,54,9.20
2017,02,14,12,55,9.20
2017,02,14,12,56,9.20
2017,02,14,12,57,9.20
2017,02,14,12,58,9.20
2017,02,14,12,59,9.20
2017,02,14,13,00,9.20
2017,02,14,13,01,9.20
2017,02,14,13,02,9.20
2017,02,14,13,03,9.20
2017,02,14,13,04,9.20
2017,02,14,13,05,9.20
2017,02,14,13,06,9.30
2017,02,14,13,07,9.30
2017,02,14,13,08,9.30
2017,02,14,13,09,9.30
2017,02,14,13,10,9.30
2017,02,14,13,11,9.30
2017,02,14,13,12,9.30
2017,02,14,13,13,9.30
2017,02,14,13,14,9.40
2017,02,14,13,15,9.40
2017,02,14,13,16,9.40
2017,02,14,13,17,9.40
2017,02,14,13,18,9.40
2017,02,14,13,19,9.40
2017,02,14,13,20,9.40
2017,02,14,13,21,9.50
2017,02,14,13,22,9.50
2017,02,14,13,23,9.60
2017,02,14,13,24,9.60
2017,02,14,13,25,9.60
2017,02,14,13,26,9.60
2017,02,14,13,27,9.60
2017,02,14,13,28,9.50
2017,02,14,13,29,9.50
2017,02,14,13,30,9.50
2017,02,14,13,31,9.60
2017,02,14,13,32,9.60
2017,02,14,13,33,9.60
2017,02,14,13,34,9.60
2017,02,14,13,35,9.60
2017,02,14,13,36,9.60
2017,02,14,13,37,9.60
2017,02,14,13,38,9.60
2017,02,14,13,39,9.60
2017,02,14,13,40,9.60
2017,02,14,13,41,9.60
2017,02,14,13,42,9.60
2017,02,14,13,43,9.60
2017,02,14,13,44,9.60
2017,02,14,13,45,9.70
2017,02,14,13,46,9.70
2017,02,14,13,47,9.70
2017,02,14,13,48,9.70
2017,02,14,13,49,9.70
2017,02,14,13,50,9.70
2017,02,14,13,51,9.70
2017,02,14,13,52,9.70
2017,02,14,13,53,9.70
2017,02,14,13,54,9.70
2017,02,14,13,55,9.70
2017,02,14,13,56,9.70
2017,02,14,13,57,9.70
2017,02,14,13,58,9.70
2017,02,14,13,59,9.70
2017,02,14,14,00,9.70
2017,02,14,14,01,9.70
2017,02,14,14,02,9.80
2017,02,14,14,03,9.80
2017,02,14,14,04,9.80
2017,02,14,14,05,9.80
2017,02,14,14,06,9.80
2017,02,14,14,07,9.80
2017,02,14,14,08,9.90
2017,02,14,14,09,9.80
2017,02,14,14,10,9.80
2017,02,14,14,11,9.90
2017,02,14,14,12,9.90
2017,02,14,14,13,9.90
2017,02,14,14,14,9.90
2017,02,14,14,15,9.90
2017,02,14,14,16,9.90
2017,02,14,14,17,9.90
2017,02,14,14,18,9.90
2017,02,14,14,19,9.90
2017,02,14,14,20,9.90
2017,02,14,14,21,9.90
2017,02,14,14,22,9.80
2017,02,14,14,23,9.80
2017,02,14,14,24,9.80
2017,02,14,14,25,9.80
2017,02,14,14,26,9.80
2017,02,14,14,27,9.80
2017,02,14,14,28,9.80
2017,02,14,14,29,9.80
2017,02,14,14,30,9.80
2017,02,14,14,31,9.80
2017,02,14,14,32,9.80
2017,02,14,14,33,9.80
2017,02,14,14,34,9.80
2017,02,14,14,35,9.80
2017,02,14,14,36,9.80
2017,02,14,14,37,9.80
2017,02,14,14,38,9.90
2017,02,14,14,39,9.90
2017,02,14,14,40,9.90
2017,02,14,14,41,9.90
2017,02,14,14,42,9.90
2017,02,14,14,43,9.90
2017,02,14,14,44,9.90
2017,02,14,14,45,9.90
2017,02,14,14,46,10.00
2017,02,14,14,47,10.00
2017,02,14,14,48,10.00
2017,02,14,14,49,10.00
2017,02,14,14,50,10.00
2017,02,14,14,51,10.10
2017,02,14,14,52,10.10
2017,02,14,14,53,10.10
2017,02,14,14,54,10.00
2017,02,14,14,55,10.00
2017,02,14,14,56,10.00
2017,02,14,14,57,10.00
2017,02,14,14,58,9.90
2017,02,14,14,59,9.90
2017,02,14,15,00,9.90
2017,02,14,15,01,9.90
2017,02,14,15,02,9.90
2017,02,14,15,03,9.90
2017,02,14,15,04,9.80
2017,02,14,15,05,9.80
2017,02,14,15,06,9.80
2017,02,14,15,07,9.80
2017,02,14,15,08,9.80
2017,02,14,15,09,9.80
2017,02,14,15,10,9.80
2017,02,14,15,11,9.80
2017,02,14,15,12,9.80
2017,02,14,15,13,9.80
2017,02,14,15,14,9.80
2017,02,14,15,15,9.80
2017,02,14,15,16,9.80
2017,02,14,15,17,9.90
2017,02,14,15,18,9.90
2017,02,14,15,19,9.80
2017,02,14,15,20,9.80
2017,02,14,15,21,9.80
2017,02,14,15,22,9.90
2017,02,14,15,23,9.90
2017,02,14,15,24,9.90
2017,02,14,15,25,9.90
2017,02,14,15,26,9.90
2017,02,14,15,27,9.90
2017,02,14,15,28,9.90
2017,02,14,15,29,9.90
2017,02,14,15,30,9.90
2017,02,14,15,31,9.90
2017,02,14,15,32,10.00
2017,02,14,15,33,10.00
2017,02,14,15,34,10.00
2017,02,14,15,35,9.90
2017,02,14,15,36,10.00
2017,02,14,15,37,9.90
2017,02,14,15,38,9.90
2017,02,14,15,39,9.90
2017,02,14,15,40,9.90
2017,02,14,15,41,9.90
2017,02,14,15,42,10.00
2017,02,14,15,43,10.00
2017,02,14,15,44,10.00
2017,02,14,15,45,10.00
2017,02,14,15,46,10.00
2017,02,14,15,47,9.90
2017,02,14,15,48,10.00
2017,02,14,15,49,10.00
2017,02,14,15,50,10.00
2017,02,14,15,51,10.00
2017,02,14,15,52,10.00
2017,02,14,15,53,10.10
2017,02,14,15,54,10.10
2017,02,14,15,55,10.10
2017,02,14,15,56,10.00
2017,02,14,15,57,10.00
2017,02,14,15,58,10.00
2017,02,14,15,59,10.00
2017,02,14,16,00,10.00
2017,02,14,16,01,10.00
2017,02,14,16,02,9.90
2017,02,14,16,03,9.90
2017,02,14,16,04,9.90
2017,02,14,16,05,9.90
2017,02,14,16,06,9.90
2017,02,14,16,07,9.90
2017,02,14,16,08,9.90
2017,02,14,16,09,9.90
2017,02,14,16,10,9.90
2017,02,14,16,11,9.90
2017,02,14,16,12,9.90
2017,02,14,16,13,9.90
2017,02,14,16,14,9.80
2017,02,14,16,15,9.80
2017,02,14,16,16,9.80
2017,02,14,16,17,9.80
2017,02,14,16,18,9.80
2017,02,14,16,19,9.80
2017,02,14,16,20,9.80
2017,02,14,16,21,9.80
2017,02,14,16,22,9.80
2017,02,14,16,23,9.80
2017,02,14,16,24,9.80
2017,02,14,16,25,9.80
2017,02,14,16,26,9.80
2017,02,14,16,27,9.80
2017,02,14,16,28,9.80
2017,02,14,16,29,9.80
2017,02,14,16,30,9.70
2017,02,14,16,31,9.70
2017,02,14,16,32,9.70
2017,02,14,16,33,9.80
2017,02,14,16,34,9.80
2017,02,14,16,35,9.80
2017,02,14,16,36,9.80
2017,02,14,16,37,9.80
2017,02,14,16,38,9.80
2017,02,14,16,39,9.80
2017,02,14,16,40,9.80
2017,02,14,16,41,9.80
2017,02,14,16,42,9.80
2017,02,14,16,43,9.80
2017,02,14,16,44,9.80
2017,02,14,16,45,9.70
2017,02,14,16,46,9.70
2017,02,14,16,47,9.70
2017,02,14,16,48,9.70
2017,02,14,16,49,9.70
2017,02,14,16,50,9.70
2017,02,14,16,51,9.70
2017,02,14,16,52,9.70
2017,02,14,16,53,9.70
2017,02,14,16,54,9.70
2017,02,14,16,55,9.60
2017,02,14,16,56,9.60
2017,02,14,16,57,9.60
2017,02,14,16,58,9.60
2017,02,14,16,59,9.60
2017,02,14,17,00,9.60
2017,02,14,17,01,9.60
2017,02,14,17,02,9.60
2017,02,14,17,03,9.60
2017,02,14,17,04,9.60
2017,02,14,17,05,9.60
2017,02,14,17,06,9.60
2017,02,14,17,07,9.60
2017,02,14,17,08,9.60
2017,02,14,17,09,9.60
2017,02,14,17,10,9.60
2017,02,14,17,11,9.60
2017,02,14,17,12,9.60
2017,02,14,17,13,9.60
2017,02,14,17,14,9.50
2017,02,14,17,15,9.60
2017,02,14,17,16,9.60
2017,02,14,17,17,9.50
2017,02,14,17,18,9.50
2017,02,14,17,19,9.50
2017,02,14,17,20,9.50
2017,02,14,17,21,9.50
2017,02,14,17,22,9.50
2017,02,14,17,23,9.50
2017,02,14,17,24,9.50
2017,02,14,17,25,9.50
2017,02,14,17,26,9.50
2017,02,14,17,27,9.40
2017,02,14,17,28,9.40
2017,02,14,17,29,9.40
2017,02,14,17,30,9.40
2017,02,14,17,31,9.40
2017,02,14,17,32,9.40
2017,02,14,17,33,9.40
2017,02,14,17,34,9.40
2017,02,14,17,35,9.40
2017,02,14,17,36,9.40
2017,02,14,17,37,9.40
2017,02,14,17,38,9.40
2017,02,14,17,39,9.40
2017,02,14,17,40,9.40
2017,02,14,17,41,9.30
2017,02,14,17,42,9.30
2017,02,14,17,43,9.30
2017,02,14,17,44,9.30
2017,02,14,17,45,9.30
2017,02,14,17,46,9.30
2017,02,14,17,47,9.30
2017,02,14,17,48,9.30
2017,02,14,17,49,9.30
2017,02,14,17,50,9.20
2017,02,14,17,51,9.20
2017,02,14,17,52,9.20
2017,02,14,17,53,9.20
2017,02,14,17,54,9.20
2017,02,14,17,55,9.20
2017,02,14,17,56,9.20
2017,02,14,17,57,9.20
2017,02,14,17,58,9.20
2017,02,14,17,59,9.20
2017,02,14,18,00,9.20
2017,02,14,18,01,9.20
2017,02,14,18,02,9.20
2017,02,14,18,03,9.20
2017,02,14,18,04,9.20
2017,02,14,18,05,9.20